Weather in Korostelevo

Russia / Tambov Oblast     51°50′05″N   42°25′09″E
temp.,
°C
wind,
m/s
gust,
m/s
humid.,
%
clouds,
%
prec.,
mm/h
press.,
hPa
HPBL,
m
21 january, fri
fri2100:00−16s4119868 0.0 1018179
03:00−15s5129788 0.0 1017190
06:00−14sse61397100 0.0 1015248
09:00−11sse71794100 0.1 1014450
12:00−8sse91992100 0.2 1011637
15:00−6sse91794100 1.7 1009702
18:00−4sse81795100 0.5 1007646
21:00−1sw8129498 1.9 1007810
22 january, sat
sat2200:00−7ssw48945 0.1 1010119
03:00−8s389699 0.1 1010138
06:00−10sse2398100 0.0 101137
09:00−6s3797100 0.0 1012210
12:00−4ssw4793100 0.0 1013459
15:00−4ssw369384 0.0 1014183
18:00−11s359976 0.0 101645
21:00−14s2210099 0.0 101833
23 january, sun
sun2300:00−17s22100100 0.0 102010
03:00−13se22100100 0.1 102128
06:00−12ese2299100 0.0 102227
09:00−10e2397100 0.1 102365
12:00−5ne3593100 0.0 1024197
15:00−4ne4996100 0.2 1024370
18:00−3ene61196100 1.3 1025496
21:00−3ene61196100 2.5 1026479
24 january, mon
mon2400:00−5e51188100 0.2 1028381
03:00−7ene51189100 0.2 1028301
06:00−8ene51189100 0.0 1029289
09:00−9ene51288100 0.0 1030328
12:00−6e51188100 0.0 1031450
15:00−6e5108937 0.0 1031408
18:00−10ene41092100 0.0 1031192
21:00−11ene499372 0.0 1032140
25 january, tue
tue2500:00−13ene499359 0.0 1032146
03:00−13e3992100 0.0 1031146
06:00−12e3992100 0.0 1030154
09:00−12ese3993100 0.0 1030169
12:00−9ese4991100 0.0 1028262
15:00−8ese489299 0.0 1027258
18:00−13ese379755 0.0 102798
21:00−14se499764 0.0 1026129